Theta_e
307 306 305 305 305 305 306 306 307 307 307 308 310 312 313 314 315 321 329 327 329 329 332 346 351 353 355 353 354 355 365 362 361 360 353 351 352 350 356 362 360 358 354 352 354
308 308 307 307 307 307 306 307 307 307 308 309 310 311 312 313 318 324 324 329 326 326 333 340 354 353 352 354 357 362 365 354 351 352 351 353 353 353 354 360 361 357 353 351 353
310 309 309 309 309 309 309 309 308 308 309 310 310 311 312 313 329 330 331 328 324 327 332 340 351 351 357 354 350 353 357 352 350 350 351 350 355 352 356 363 361 358 354 352 353
312 311 311 311 311 311 311 310 309 308 309 309 310 311 312 317 335 334 329 327 326 331 339 351 347 344 352 356 353 355 351 347 348 351 351 352 350 349 349 359 357 354 353 353 352
310 311 311 312 312 311 311 311 310 309 309 309 310 310 314 328 326 330 327 325 329 337 344 352 355 352 354 354 351 352 346 347 346 350 347 352 352 350 350 359 356 355 354 354 353
308 310 310 311 312 312 312 312 311 309 309 310 310 310 324 323 332 329 328 324 336 338 346 352 354 349 350 358 350 351 352 347 346 348 349 352 354 352 350 351 357 356 355 354 354
308 307 309 309 310 311 311 312 312 310 310 311 311 311 321 323 329 332 331 333 336 339 345 350 351 350 355 357 353 353 353 354 353 352 353 352 357 356 350 351 353 352 355 355 354
308 307 307 308 308 309 311 313 313 311 312 314 313 319 322 321 325 326 334 336 336 339 342 345 351 351 352 351 355 355 354 357 353 351 353 352 359 357 350 352 354 352 350 356 355
309 308 307 307 307 308 311 312 313 311 313 314 314 321 322 325 325 326 327 335 338 339 342 345 351 352 353 360 357 358 359 356 357 346 352 353 357 354 351 351 353 352 352 351 354
308 308 307 307 307 308 310 312 314 313 319 321 324 323 326 325 325 325 327 336 336 337 341 345 347 349 350 359 367 362 362 356 362 358 355 352 352 355 352 353 353 352 352 351 351
308 307 307 307 307 307 309 313 320 320 321 323 322 326 325 325 325 324 324 333 337 339 342 343 347 348 349 356 357 358 358 358 360 355 356 352 351 351 353 352 353 353 352 352 352
308 307 306 306 307 307 307 314 320 319 320 323 326 324 323 324 324 322 324 336 339 341 341 343 347 345 350 353 355 353 355 356 356 354 352 353 351 348 352 351 351 354 353 352 352
309 307 306 306 307 309 310 316 318 321 318 323 325 326 323 324 324 321 323 335 338 340 340 342 343 345 347 350 351 351 355 353 352 351 347 350 353 352 351 349 348 351 354 352 352
309 308 306 306 312 315 319 321 322 322 321 324 323 327 325 324 324 325 327 331 336 336 337 338 339 342 342 351 349 351 352 352 353 351 350 346 355 348 351 350 348 346 345 353 352
308 308 306 306 309 314 318 320 318 319 328 328 324 327 323 322 323 324 326 329 331 332 335 337 336 336 338 340 348 349 349 350 352 351 349 347 348 349 347 351 349 347 346 346 352
308 307 306 315 315 315 318 318 319 324 329 327 326 325 322 321 322 323 323 327 328 329 330 332 333 333 334 335 345 345 350 350 349 348 348 354 351 352 352 348 349 345 345 346 353
308 306 306 307 316 317 318 318 321 326 327 328 326 325 322 321 321 320 323 325 327 328 329 330 331 332 333 334 338 340 347 353 351 352 353 356 353 354 348 347 345 344 346 345 349
306 306 306 306 307 312 317 320 325 326 325 328 327 327 325 323 321 321 320 322 323 326 327 330 331 332 333 334 338 338 345 351 352 354 356 356 358 350 348 345 341 343 345 345 345
306 311 316 315 308 312 318 321 325 327 327 326 328 328 327 325 323 321 321 323 323 325 326 326 330 332 333 336 337 336 338 340 342 343 344 355 355 350 347 347 339 342 343 343 343
308 314 316 321 312 316 319 322 323 324 325 326 328 329 328 326 325 322 321 324 324 324 325 325 326 330 333 333 337 335 344 347 343 354 359 360 359 358 352 349 346 339 338 341 346
313 320 322 319 315 317 320 321 323 323 323 326 327 328 328 329 326 324 323 323 325 325 323 324 323 327 330 335 336 344 346 347 345 349 355 354 356 347 350 346 342 338 338 337 345
315 325 320 319 316 317 318 319 318 322 323 324 326 327 327 327 329 326 325 325 325 325 325 323 324 327 329 329 334 336 342 341 346 356 350 346 351 344 343 339 338 339 336 336 346
317 321 322 319 319 317 317 317 318 320 321 323 326 327 327 326 328 332 328 327 326 325 324 324 325 326 325 326 334 335 334 338 339 342 348 346 356 347 340 339 340 340 336 336 342
316 328 325 322 321 321 319 319 319 320 320 322 323 326 326 326 325 329 330 331 327 326 341 328 322 323 325 327 330 331 331 333 333 338 342 351 349 344 341 343 341 337 337 342 344
316 322 324 326 324 323 322 320 322 322 321 321 323 327 327 327 328 329 330 331 328 338 326 322 323 323 323 325 326 326 330 333 334 332 333 345 345 345 343 341 340 333 333 334 343
316 322 323 324 326 324 321 321 322 324 324 322 324 327 327 328 329 331 331 332 327 326 325 322 322 325 326 326 325 326 326 334 334 332 330 333 336 338 336 338 336 333 334 337 339
317 319 322 324 325 325 324 321 322 322 325 324 325 327 327 328 328 327 327 328 329 325 324 322 321 323 326 327 326 326 328 328 330 338 334 341 338 337 341 340 339 333 336 344 344
Wind_Speed
14 14 13 12 13 13 13 14 14 14 14 15 14 14 15 18 20 9 5 7 4 8 8 9 13 19 17 5 5 4 4 5 7 5 5 13 10 9 15 16 11 6 19 19 31
14 13 13 12 13 13 14 14 15 15 15 14 14 14 16 19 18 11 15 12 8 8 7 9 12 7 5 3 6 4 4 6 6 6 7 8 11 10 13 15 20 22 17 24 27
13 13 12 13 13 14 15 16 15 14 14 14 14 14 15 16 5 5 10 13 5 8 10 11 9 15 13 12 2 7 5 6 8 7 12 4 14 4 13 14 22 25 22 19 27
13 13 12 13 14 15 15 16 15 14 14 14 14 14 14 6 3 2 7 10 6 7 5 6 7 6 3 5 7 13 15 8 8 9 9 10 15 13 6 16 22 24 22 15 10
14 14 14 14 14 15 16 16 15 14 14 13 13 14 5 3 8 10 7 8 7 6 8 3 7 6 4 8 15 3 3 9 3 12 6 12 11 13 9 24 23 23 21 18 11
16 15 15 15 15 16 17 16 14 14 13 12 11 11 3 4 7 3 7 9 7 9 11 14 6 18 7 11 6 13 16 7 4 7 8 8 9 6 9 18 22 24 21 20 19
17 17 15 16 16 17 17 16 14 13 11 10 8 5 5 13 1 2 11 9 10 15 11 11 15 9 14 10 5 9 9 7 10 14 3 6 6 8 12 14 16 15 20 20 19
18 18 17 17 17 18 18 15 14 12 9 7 5 0 7 14 12 14 11 12 13 16 22 22 5 7 6 1 3 2 4 5 6 13 7 7 2 7 13 14 16 16 13 21 19
19 19 18 17 18 19 17 15 14 12 7 4 3 3 9 6 12 16 17 15 16 17 21 16 4 6 1 3 3 1 3 1 9 17 9 8 5 12 14 15 14 15 14 12 17
20 21 20 18 18 20 18 14 10 9 6 3 9 5 8 12 17 21 17 17 10 9 9 7 4 6 7 3 5 5 3 5 7 7 8 6 8 14 15 18 17 16 14 13 12
21 22 21 18 18 19 21 4 2 2 7 10 8 6 9 23 25 19 24 18 12 7 7 9 5 7 9 9 9 7 12 10 18 21 8 5 7 9 18 16 17 16 16 16 17
22 23 21 19 18 18 13 4 9 10 7 19 20 18 26 20 7 9 25 9 9 8 8 8 9 14 8 5 4 5 6 5 11 12 8 6 8 10 10 16 15 19 19 19 17
23 23 22 19 19 13 11 15 14 16 4 8 17 11 13 10 6 10 12 9 9 9 10 9 13 17 12 6 7 7 5 5 3 4 6 5 10 7 9 8 11 17 23 23 21
24 24 23 23 7 9 7 11 9 11 4 7 10 11 12 6 7 14 17 10 9 11 13 9 16 18 14 10 6 6 7 7 6 4 4 3 7 6 7 4 7 6 7 18 21
24 24 21 16 15 7 14 14 5 7 4 6 10 13 11 14 7 15 20 10 14 12 8 11 14 14 13 14 7 9 6 5 6 7 4 7 4 5 5 6 6 4 9 3 20
25 23 24 4 9 12 19 16 10 1 7 2 6 9 9 14 14 5 11 8 8 12 14 11 12 10 11 14 9 7 6 4 6 3 3 6 2 2 6 5 5 4 12 8 20
27 24 23 13 6 3 12 7 1 5 8 10 8 11 14 10 12 10 14 12 10 8 14 12 16 13 9 9 7 7 7 2 3 1 5 6 5 4 7 11 14 8 10 6 12
29 22 21 22 18 11 11 1 6 9 14 2 8 10 11 12 14 14 11 11 11 11 5 10 10 13 11 8 6 7 7 5 5 3 5 5 3 5 13 15 14 10 1 3 11
30 11 6 16 16 9 2 5 7 7 10 6 10 11 10 11 8 13 14 13 12 14 12 6 15 13 15 6 7 9 8 4 2 5 3 4 7 7 20 15 5 8 9 8 11
18 8 14 12 16 10 3 6 9 12 16 18 12 7 9 12 12 12 10 9 10 13 16 13 10 12 10 10 8 8 0 2 4 3 4 4 3 8 14 22 17 5 6 6 13
2 3 6 26 20 2 6 7 9 19 18 5 13 9 8 7 16 12 12 13 13 14 13 13 8 22 12 5 9 3 4 5 6 3 4 2 2 9 18 14 6 10 14 11 10
7 3 22 26 4 4 9 5 7 18 20 16 12 9 9 11 5 15 18 13 17 15 11 11 5 10 14 19 17 10 9 7 5 4 3 5 0 8 10 15 12 14 21 15 9
4 4 17 18 4 8 8 14 19 20 19 12 12 7 12 10 7 5 13 16 14 14 11 7 4 7 12 8 7 4 5 7 5 5 6 4 4 8 15 18 21 18 18 10 8
3 3 3 6 8 11 10 14 17 16 21 21 17 9 10 10 9 7 11 8 9 10 11 8 7 7 8 9 1 8 7 7 8 6 5 5 9 6 12 9 7 19 12 2 9
4 5 7 5 10 15 13 12 16 14 13 14 15 10 9 7 7 8 10 12 6 10 6 7 5 7 10 13 8 8 11 12 9 8 2 17 17 21 22 22 19 12 8 14 6
4 4 7 10 11 13 12 12 17 19 12 12 13 10 10 6 7 6 8 7 7 4 5 3 5 7 7 10 8 11 9 4 11 8 6 7 7 19 9 5 5 9 1 7 6
10 11 4 7 8 8 7 15 17 19 18 13 13 9 13 8 7 7 10 11 2 8 6 6 5 2 4 6 7 7 6 5 4 16 8 9 5 10 5 5 9 8 2 5 7
Wind_Direction
15 11 9 5 1 358 353 350 347 343 342 339 334 329 325 323 320 305 243 246 213 259 273 260 245 238 233 105 44 308 101 187 188 225 123 109 101 107 128 136 169 168 143 134 141
9 10 4 2 356 354 349 345 344 340 336 334 331 328 329 332 327 253 242 251 257 269 259 249 286 242 20 123 172 174 205 211 194 205 115 138 132 129 115 104 103 115 131 143 137
0 4 360 356 351 349 347 342 340 336 332 329 328 328 331 337 297 235 222 223 232 254 258 291 342 79 81 290 330 3 260 204 140 194 129 83 99 97 127 129 136 140 151 162 143
353 354 353 349 346 342 344 341 337 334 330 328 325 327 329 339 355 17 179 196 212 238 276 73 42 67 117 305 282 208 217 129 152 154 124 112 115 89 67 143 140 143 151 138 149
349 345 345 341 340 337 337 338 332 329 326 323 323 330 356 246 252 267 185 188 203 224 236 199 47 51 55 279 285 261 47 103 133 118 109 113 112 108 101 134 138 142 144 146 153
350 342 339 337 334 334 332 330 328 325 321 318 319 331 326 269 193 216 173 186 205 226 264 239 113 95 325 258 302 355 352 133 216 108 114 114 114 95 111 123 138 146 155 162 169
349 343 336 334 332 329 325 320 318 319 314 312 316 336 271 241 100 199 169 211 215 234 258 284 142 155 191 278 290 290 2 351 26 21 309 98 80 132 133 132 137 153 167 172 174
347 342 335 330 329 325 318 312 310 309 307 298 303 132 252 246 286 242 199 213 237 256 266 283 228 180 169 221 66 317 343 15 309 337 304 94 183 162 150 148 158 165 171 172 183
345 339 332 329 326 322 313 306 303 296 290 286 286 217 267 269 213 234 232 216 218 248 266 276 336 264 180 50 41 74 176 29 1 297 289 238 218 186 169 162 171 169 175 175 170
344 339 333 330 327 323 313 304 290 290 294 248 262 291 261 234 203 216 238 233 231 228 252 251 257 239 258 130 205 200 228 201 168 276 251 230 239 173 191 176 178 173 174 172 176
344 339 333 329 325 324 324 352 110 358 258 213 194 241 303 206 207 209 221 228 235 230 234 245 234 247 259 153 201 200 220 148 190 245 247 239 274 222 196 193 180 179 177 178 179
342 339 333 325 317 310 305 263 260 337 284 225 251 242 259 274 232 183 208 198 223 221 227 264 230 242 218 168 212 282 311 279 206 229 177 264 260 264 183 198 181 185 178 181 175
340 338 332 323 312 295 243 243 282 323 279 265 215 227 237 233 233 200 193 197 219 218 235 217 252 243 214 224 214 236 240 295 322 1 343 295 263 268 258 211 194 192 181 183 175
337 336 334 330 308 317 254 292 268 268 297 258 194 210 235 199 242 226 208 191 232 218 229 240 246 260 272 224 218 243 182 247 309 335 261 256 275 320 268 160 348 22 118 192 181
335 333 329 334 300 296 325 346 319 246 306 188 169 181 177 199 159 222 233 197 224 236 220 238 252 264 257 260 188 233 164 227 275 279 308 4 25 270 35 29 331 30 360 226 188
330 328 326 19 293 271 321 326 304 265 248 120 115 150 173 211 226 262 206 184 215 249 261 256 252 246 248 272 220 149 161 245 267 257 339 335 105 359 5 199 220 213 199 251 177
325 319 308 277 230 290 326 294 161 225 277 146 169 169 190 202 216 232 204 188 196 215 251 270 267 265 263 261 262 216 137 280 315 277 222 298 42 275 311 291 311 278 233 161 153
321 308 282 257 258 294 305 216 232 221 250 76 154 185 189 201 202 225 240 205 196 229 225 234 267 254 262 217 202 278 190 191 235 233 211 2 209 247 345 347 338 58 27 311 152
326 324 260 263 222 217 272 215 206 228 217 245 176 185 190 203 200 199 233 206 196 196 232 234 231 255 222 237 139 260 291 246 17 322 35 138 346 325 337 346 323 100 109 295 267
322 295 252 226 177 184 214 252 235 271 314 332 315 231 171 186 203 185 214 217 200 199 201 255 283 269 250 208 193 183 92 353 16 49 352 69 153 153 296 280 284 337 212 330 269
265 255 195 162 150 201 219 233 258 279 288 277 313 324 316 189 196 201 202 234 196 226 199 217 231 274 292 212 183 115 113 47 95 142 142 324 220 188 206 231 261 265 270 295 212
300 252 136 146 155 206 235 240 276 278 294 295 292 302 301 306 294 211 207 195 202 198 214 196 197 249 256 266 190 182 169 140 121 244 192 154 74 358 286 336 336 331 312 301 147
283 270 157 169 222 227 239 244 251 266 271 283 282 272 285 293 326 312 217 209 202 182 193 204 220 256 291 318 164 205 219 170 150 105 247 166 262 306 359 4 332 313 312 268 110
278 258 170 205 242 260 250 247 238 247 255 269 282 269 274 289 282 296 307 269 200 183 169 163 184 186 228 237 245 183 202 219 168 167 220 160 183 192 218 200 251 288 301 203 142
240 257 23 198 226 231 255 278 291 254 236 246 271 257 253 269 281 283 288 291 197 139 125 130 218 226 249 261 295 299 222 211 211 235 194 171 168 189 216 196 199 260 45 327 235
289 346 340 295 295 209 223 240 261 275 260 243 241 259 273 261 252 302 335 320 146 120 117 154 235 235 253 273 267 262 292 220 214 221 234 170 218 194 203 129 262 211 162 339 37
336 343 305 292 306 325 228 216 238 258 278 233 231 215 263 265 304 318 299 295 187 136 168 182 177 196 247 278 295 321 295 290 28 42 72 63 312 125 122 127 261 234 355 56 14